GW2817 Weather Reports


time (UTC)temp
F
wind
direction
speed
knots
gust
knots
rain 1hr
in
rain 24hr
in
rain mn
in
humidity
%
barometer
mb
20260505090540 47 225 1.7 4.3 0.00 0.00 0.00 63 1008.5
20260505085513 47 225 1.7 4.3 0.00 0.00 0.00 64 1008.5
20260505085003 46 248 2.6 3.5 0.00 0.00 0.00 64 1008.2
20260505083943 46 315 2.6 3.5 0.00 0.00 0.00 66 1008.5
20260505083432 46 0 0.9 3.5 0.00 0.00 0.00 64 1008.5
20260505082412 47 315 0.0 4.3 0.00 0.00 0.00 65 1008.3
20260505081902 47 0 0.0 4.3 0.00 0.00 0.00 65 1008.3
20260505081623 47 248 3.5 4.3 0.00 0.00 0.00 66 1008.6
20260505080842 46 315 0.0 5.2 0.00 0.00 0.00 68 1008.5
20260505080332 46 270 1.7 5.2 0.00 0.00 0.00 68 1008.6
20260505075821 46 270 0.0 3.5 0.00 0.00 0.00 68 1008.8
20260505075311 46 270 0.0 5.2 0.00 0.00 0.00 68 1008.9
20260505074802 45 225 0.0 5.2 0.00 0.00 0.00 68 1008.9
20260505074251 46 270 0.0 4.3 0.00 0.00 0.00 68 1008.8
20260505073741 46 0 0.0 4.3 0.00 0.00 0.00 67 1008.6
20260505073231 46 270 0.0 3.5 0.00 0.00 0.00 65 1008.8
20260505072720 46 315 0.0 4.3 0.00 0.00 0.00 65 1008.9
20260505072211 47 270 1.7 4.3 0.00 0.00 0.00 63 1009.1
20260505071701 47 315 0.0 3.5 0.00 0.00 0.00 63 1009.0
20260505071150 48 135 0.0 3.5 0.00 0.00 0.00 64 1008.5
20260505070641 47 315 0.0 3.5 0.00 0.00 0.00 65 1008.8
20260505070130 47 270 0.0 4.3 0.00 0.00 0.00 65 1008.5
20260505065619 47 315 1.7 4.3 0.00 0.00 0.00 65 1009.0
20260505065110 47 315 2.6 3.5 0.00 0.00 0.00 64 1008.9
20260505064559 47 270 0.0 3.5 0.00 0.00 0.00 63 1008.6
20260505064049 48 270 1.7 4.3 0.00 0.00 0.00 63 1008.9
20260505063539 48 315 0.0 4.3 0.00 0.00 0.00 63 1009.0
20260505063032 48 248 0.9 3.5 0.00 0.00 0.00 61 1008.6
20260505062519 48 293 0.0 3.5 0.00 0.00 0.00 62 1008.9
20260505062008 48 225 0.0 6.1 0.00 0.00 0.00 63 1009.0
20260505061729 48 248 2.6 6.1 0.00 0.00 0.00 61 1009.0
20260505061219 49 90 0.0 3.5 0.00 0.00 0.00 61 1008.4
20260505060438 49 315 0.0 3.5 0.00 0.00 0.00 61 1008.3
20260505060159 48 270 0.9 3.5 0.00 0.00 0.00 61 1008.6
20260505055417 49 270 0.0 2.6 0.00 0.00 0.00 61 1008.8
20260505054907 49 270 0.0 5.2 0.00 0.00 0.00 61 1008.4
20260505054358 49 225 0.9 5.2 0.00 0.00 0.00 60 1008.3
20260505053848 49 225 3.5 4.3 0.00 0.00 0.00 59 1008.4
20260505053338 49 270 0.0 4.3 0.00 0.00 0.00 59 1008.1
20260505052827 49 293 2.6 4.3 0.00 0.00 0.00 60 1008.1
20260505052549 49 248 1.7 6.1 0.00 0.00 0.00 61 1008.2
20260505051807 48 248 0.9 6.1 0.00 0.00 0.00 62 1007.8
20260505051258 48 315 0.0 3.5 0.00 0.00 0.00 61 1007.6
20260505050237 48 225 0.9 5.2 0.00 0.00 0.00 63 1007.7
20260505041606 48 315 0.0 3.5 0.00 0.00 0.00 62 1007.4
20260505041055 48 270 0.9 5.2 0.00 0.00 0.00 61 1007.3
20260505040545 49 248 1.7 5.2 0.00 0.00 0.00 61 1007.6
20260505040031 49 0 0.0 3.5 0.00 0.00 0.00 61 1007.4
20260505035756 49 315 1.7 5.2 0.00 0.00 0.00 61 1007.7
20260505035014 49 270 1.7 5.2 0.00 0.00 0.00 61 1007.5
20260505034505 49 315 0.0 4.3 0.00 0.00 0.00 61 1007.0
20260505033716 50 270 0.0 3.5 0.00 0.00 0.00 58 1007.4
20260505032934 51 315 0.0 3.5 0.00 0.00 0.00 57 1007.4
20260505032425 51 248 0.0 3.5 0.00 0.00 0.00 59 1007.3
20260505032145 50 270 0.0 5.2 0.00 0.00 0.00 60 1007.4
20260505031404 49 270 3.5 5.2 0.00 0.00 0.00 61 1007.4
20260505031124 49 315 0.0 3.5 0.00 0.00 0.00 61 1007.2
20260505030344 50 270 2.6 3.5 0.00 0.00 0.00 60 1007.3
20260505030104 50 270 0.0 4.3 0.00 0.00 0.00 60 1007.0
20260505025555 50 315 0.0 4.3 0.00 0.00 0.00 60 1007.3
20260505024813 50 315 0.0 3.5 0.00 0.00 0.00 58 1006.9
20260505024302 50 225 0.0 4.3 0.00 0.00 0.00 59 1006.9
20260505023753 50 315 0.0 4.3 0.00 0.00 0.00 57 1007.0
20260505023243 51 225 0.0 4.3 0.00 0.00 0.00 57 1006.7
20260505022732 51 225 0.0 4.3 0.00 0.00 0.00 57 1006.9
20260505022222 51 225 3.5 4.3 0.00 0.00 0.00 58 1006.7
20260505021712 51 0 0.0 3.5 0.00 0.00 0.00 59 1006.9
20260505021202 51 225 0.0 3.5 0.00 0.00 0.00 59 1006.1
20260505020651 50 315 3.5 3.5 0.00 0.00 0.00 58 1006.7
20260505020141 51 270 0.0 3.5 0.00 0.00 0.00 58 1006.6
20260505015632 51 293 0.9 4.3 0.00 0.00 0.00 58 1006.7
20260505014611 51 225 0.0 1.7 0.00 0.00 0.00 58 1006.3
20260505014101 51 0 0.0 6.1 0.00 0.00 0.00 60 1006.5
20260505013822 50 315 0.0 6.1 0.00 0.00 0.00 59 1006.6
20260505013040 50 0 0.0 4.3 0.00 0.00 0.00 60 1006.0
20260505012531 49 270 0.0 4.3 0.00 0.00 0.00 61 1006.1
20260505012251 49 248 1.7 4.3 0.00 0.00 0.00 60 1006.1
20260505011511 50 0 0.0 3.5 0.00 0.00 0.00 57 1006.1
20260505011000 51 315 0.0 3.5 0.00 0.00 0.00 57 1006.1
20260505010450 51 0 0.0 3.5 0.00 0.00 0.00 56 1006.0
20260505005939 51 270 1.7 3.5 0.00 0.00 0.00 56 1005.9
20260505005430 51 0 0.0 6.1 0.00 0.00 0.00 55 1006.0
20260505004919 51 315 0.9 6.1 0.00 0.00 0.00 56 1006.1
20260505004129 51 270 0.0 3.5 0.00 0.00 0.00 55 1005.6
20260505003620 51 270 0.0 3.5 0.00 0.00 0.00 55 1005.7
20260505002839 51 315 0.0 2.6 0.00 0.00 0.00 54 1005.7
20260505002558 52 225 0.0 5.2 0.00 0.00 0.00 53 1005.7
20260505001818 51 270 0.0 5.2 0.00 0.00 0.00 54 1005.7
20260505001309 51 203 1.7 4.3 0.00 0.00 0.00 54 1005.7
20260505000758 51 225 0.0 7.0 0.00 0.00 0.00 54 1005.1
20260504235739 51 225 1.7 3.5 0.00 0.00 0.00 52 1004.7
20260504235228 52 270 0.9 2.6 0.00 0.00 0.00 51 1004.9
20260504234718 52 180 0.0 2.6 0.00 0.00 0.00 51 1004.4
20260504234209 52 225 0.0 1.7 0.00 0.00 0.00 51 1004.6
20260504233657 52 225 0.0 4.3 0.00 0.00 0.00 51 1004.6
20260504233147 52 225 0.0 4.3 0.00 0.00 0.00 51 1004.6
20260504232638 53 270 0.9 2.6 0.00 0.00 0.00 50 1004.2
20260504232127 53 225 0.0 0.9 0.00 0.00 0.00 50 1004.1
20260504231617 53 225 0.0 3.5 0.00 0.00 0.00 50 1003.9
20260504231106 53 315 1.7 3.5 0.00 0.00 0.00 50 1003.6
20260504230556 53 225 0.0 0.9 0.00 0.00 0.00 49 1003.4
20260504230047 53 270 0.0 5.2 0.00 0.00 0.00 49 1003.8
20260504225536 54 0 0.0 5.2 0.00 0.00 0.00 48 1003.5
20260504225026 54 225 1.7 4.3 0.00 0.00 0.00 48 1004.1
20260504224516 55 225 0.0 0.9 0.00 0.00 0.00 46 1003.3
20260504224006 55 270 0.0 0.0 0.00 0.00 0.00 44 1003.5
20260504223455 55 270 0.0 0.0 0.00 0.00 0.00 43 1003.3
20260504222945 56 315 0.0 0.9 0.00 0.00 0.00 43 1003.3
20260504222705 56 315 0.0 0.9 0.00 0.00 0.00 42 1003.0
20260504221925 57 315 0.0 0.0 0.00 0.00 0.00 39 1003.2
20260504221415 59 0 0.0 0.0 0.00 0.00 0.00 38 1003.0
20260504220904 59 270 0.0 0.9 0.00 0.00 0.00 37 1003.0
20260504220355 60 315 0.0 0.9 0.00 0.00 0.00 37 1002.8
20260504215844 60 315 0.0 0.9 0.00 0.00 0.00 37 1002.7
20260504215334 60 0 0.0 0.9 0.00 0.00 0.00 35 1002.6
20260504214825 61 270 0.0 0.9 0.00 0.00 0.00 33 1002.5
20260504214314 62 0 0.0 0.9 0.00 0.00 0.00 32 1002.5
20260504213804 63 0 0.0 0.9 0.00 0.00 0.00 30 1002.5
20260504213254 64 0 0.0 0.9 0.00 0.00 0.00 30 1002.1
20260504212744 65 0 0.0 0.9 0.00 0.00 0.00 32 1002.5
20260504212504 66 0 0.0 1.7 0.00 0.00 0.00 29 1002.5
20260504211723 69 45 0.0 1.7 0.00 0.00 0.00 25 1002.2
20260504211213 71 90 0.0 5.2 0.00 0.00 0.00 22 1002.4
20260504210703 73 45 0.0 5.2 0.00 0.00 0.00 20 1002.2
20260504210424 74 45 0.0 2.6 0.00 0.00 0.00 22 1002.4
20260504205913 74 68 0.9 3.5 0.00 0.00 0.00 21 1002.3
20260504204622 76 135 0.9 1.7 0.00 0.00 0.00 14 1002.1
20260504204112 76 90 0.0 1.7 0.00 0.00 0.00 14 1002.4
20260504203602 78 68 0.0 1.7 0.00 0.00 0.00 14 1002.1
20260504203052 77 68 0.0 1.7 0.00 0.00 0.00 13 1002.3
20260504202541 78 45 0.0 1.7 0.00 0.00 0.00 14 1002.2
20260504202031 77 45 0.0 4.3 0.00 0.00 0.00 13 1002.5
20260504201519 78 45 0.0 4.3 0.00 0.00 0.00 14 1002.5
20260504201009 78 45 0.0 3.5 0.00 0.00 0.00 13 1002.2
20260504200458 78 90 0.0 3.5 0.00 0.00 0.00 13 1002.2
20260504195951 78 45 0.0 1.7 0.00 0.00 0.00 13 1002.6
20260504195438 78 315 0.0 3.5 0.00 0.00 0.00 12 1002.2
20260504194418 80 135 1.7 4.3 0.00 0.00 0.00 12 1002.6
20260504194138 78 45 0.0 4.3 0.00 0.00 0.00 12 1002.6
20260504193357 78 158 0.0 6.1 0.00 0.00 0.00 12 1002.2
20260504192608 78 90 0.9 4.3 0.00 0.00 0.00 12 1002.6
20260504191826 77 90 0.0 7.8 0.00 0.00 0.00 12 1002.6
20260504191316 79 90 0.0 7.8 0.00 0.00 0.00 12 1002.5
20260504190806 79 90 0.0 3.5 0.00 0.00 0.00 12 1002.8
20260504190256 80 45 0.0 1.7 0.00 0.00 0.00 10 1002.8
20260504190017 80 23 0.0 3.5 0.00 0.00 0.00 12 1002.6
20260504185236 78 135 0.0 3.5 0.00 0.00 0.00 11 1002.8
20260504184726 79 45 0.0 4.3 0.00 0.00 0.00 11 1002.8
20260504184216 78 90 0.0 4.3 0.00 0.00 0.00 12 1003.0
20260504183937 78 90 0.0 7.8 0.00 0.00 0.00 11 1003.0
20260504183155 78 113 0.0 7.8 0.00 0.00 0.00 12 1002.8
20260504182646 80 135 0.0 5.2 0.00 0.00 0.00 11 1003.2
20260504182406 78 180 2.6 5.2 0.00 0.00 0.00 11 1003.2
20260504181625 79 225 0.0 5.2 0.00 0.00 0.00 11 1003.5
20260504181115 78 90 0.0 5.2 0.00 0.00 0.00 12 1003.8
20260504180604 78 45 0.9 4.3 0.00 0.00 0.00 11 1003.8
20260504180055 78 90 0.0 1.7 0.00 0.00 0.00 12 1003.8
20260504175545 77 45 0.0 3.5 0.00 0.00 0.00 12 1004.1
20260504175034 77 90 0.0 3.5 0.00 0.00 0.00 13 1004.3
20260504174525 78 90 0.0 5.2 0.00 0.00 0.00 11 1004.3
20260504174013 77 90 0.0 5.2 0.00 0.00 0.00 14 1004.6
20260504173505 77 180 0.0 5.2 0.00 0.00 0.00 11 1004.6
20260504172954 79 135 0.0 1.7 0.00 0.00 0.00 11 1005.0
20260504172714 79 90 0.0 5.2 0.00 0.00 0.00 11 1005.2
20260504171937 78 180 0.0 5.2 0.00 0.00 0.00 11 1005.7
20260504171657 77 0 0.0 4.3 0.00 0.00 0.00 11 1005.6
20260504170917 78 90 2.6 4.3 0.00 0.00 0.00 10 1005.8
20260504170405 78 0 0.0 2.6 0.00 0.00 0.00 10 1006.1
20260504160204 75 0 0.0 3.5 0.00 0.00 0.00 14 1009.0
20260504151022 74 135 0.0 1.7 0.00 0.00 0.00 15 1010.3
20260504150513 73 0 0.0 3.5 0.00 0.00 0.00 15 1010.2
20260504141332 70 0 0.0 0.9 0.00 0.00 0.00 21 1011.4
20260504140821 68 0 0.0 3.5 0.00 0.00 0.00 22 1011.1
20260504140311 69 45 0.0 3.5 0.00 0.00 0.00 21 1011.4
20260504130620 69 45 0.0 0.9 0.00 0.00 0.00 20 1011.6
20260504130109 67 0 0.0 0.9 0.00 0.00 0.00 21 1012.3
20260504100525 46 23 0.0 3.5 0.00 0.00 0.00 47 1010.1
20260504100246 47 315 1.7 6.1 0.00 0.00 0.00 46 1010.9